{"data":{"norad_id":60042,"intl_designator":"2024-112E","name":"STARLINK-11120 [DTC]","alt_names":[],"object_type":"PAYLOAD","status":"ACTIVE","operator":null,"country":"US","launch_date":"2024-06-08","launch_site_code":"AFWTR","launch_vehicle":null,"mission":null,"orbit_class":"UNKNOWN","rcs_meters":null,"size_class":null,"mass_kg":null,"dimensions":null,"purposes":["comms"],"wikipedia_slug":null,"has_3d_model":false,"image_url":null,"decayed_at":null,"tle_current":{"epoch":"2026-09-21T15:01:17.181984Z","epoch_age_seconds":80409,"freshness":"FRESH","line1":"1 60042U 24112E   26264.62589331 -.00003304  00000+0 -22410-4 0  9993","line2":"2 60042  53.1594  20.4744 0001364 108.2341 251.8825 15.69716274131751","mean_motion":15.69716274,"eccentricity":0.0001364,"inclination_deg":53.1594,"raan_deg":20.4744,"arg_perigee_deg":108.2341,"mean_anomaly_deg":251.8825,"bstar":-2.241e-5,"rev_number":13175,"period_min":91.736323554227,"perigee_km":358.78975452647,"apogee_km":360.62783885981,"semimajor_km":6737.8457966931,"source":"CELESTRAK","updated_at":"2026-09-22T09:00:49.142568Z"}}}